Tracking 31027 objects as of 19-Jul-2025
HD Live streaming from Space Station
objects crossing your sky now

STARLINK-31265

Track STARLINK-31265 now!
10-day predictions
STARLINK-31265 is classified as:


NORAD ID: 59074
Int'l Code: 2024-041A
Perigee: 489.6 km
Apogee: 490.8 km
Inclination: 43.0 °
Period: 94.3 minutes
Semi major axis: 6861 km
RCS: Unknown
Launch date: February 29, 2024
Source: United States (US)
Launch site: AIR FORCE EASTERN TEST RANGE (AFETR)
Your satellite tracking list
IRIDIUM 106
Track 1 satellite(s)




NASA's NSSDC Master Catalog

Two Line Element Set (TLE):
1 59074U 24041A   25199.35918897  .00000289  00000-0  20011-4 0  9999
2 59074  42.9981 194.0884 0000871 277.7084  82.3669 15.27580178 78435
Source of the keplerian elements: AFSPC